When you browse on this site, cookies collect data to enhance your experience and personalize the content and advertising you see.
Visit our Privacy Policy to learn more. By continuing to use the site, you agree to this use of cookies and data.
  • In Czech Republic
  • List of Countries
  • For 7 days
  • Water Temperature
  • Satellite Maps
  • Weather Map
  • Weather Widgets
  • user-avatar
    Login

    Hourly Weather Brisbane

    Today, 17 February, Sunday

    Time Temperature Precipitation Wind Pressure Humidity
    00:00 +22°C° 0 mm 3 mps 760 mmHg 77%
    01:00 +22°C° 0 mm 3 mps 759 mmHg 78%
    02:00 +21°C° 0 mm 3 mps 759 mmHg 80%
    03:00 +21°C° 0 mm 3 mps 759 mmHg 81%
    04:00 +21°C° 0 mm 3 mps 758 mmHg 82%
    05:00 +21°C° 0 mm 3 mps 758 mmHg 78%
    06:00 +22°C° 0 mm 3 mps 758 mmHg 74%
    07:00 +24°C° 0 mm 3 mps 759 mmHg 70%
    08:00 +26°C° 0 mm 3 mps 758 mmHg 63%
    09:00 +28°C° 0 mm 4 mps 758 mmHg 55%
    10:00 +30°C° 0 mm 3 mps 759 mmHg 46%
    11:00 +32°C° 0 mm 4 mps 758 mmHg 45%
    12:00 +33°C° 0 mm 4 mps 758 mmHg 43%
    13:00 +33°C° 0 mm 4 mps 757 mmHg 41%
    14:00 +33°C° 0 mm 5 mps 757 mmHg 43%
    15:00 +32°C° 0 mm 5 mps 756 mmHg 44%
    16:00 +32°C° 0 mm 5 mps 756 mmHg 46%
    17:00 +29°C° 0 mm 5 mps 756 mmHg 51%
    18:00 +28°C° 0 mm 4 mps 757 mmHg 57%
    19:00 +26°C° 0 mm 4 mps 757 mmHg 63%
    20:00 +26°C° 0 mm 4 mps 757 mmHg 66%
    21:00 +25°C° 0 mm 3 mps 758 mmHg 70%
    22:00 +24°C° 0 mm 3 mps 758 mmHg 73%
    23:00 +24°C° 0 mm 3 mps 758 mmHg 76%

    Tomorrow, 18 February, Monday

    Time Temperature Precipitation Wind Pressure Humidity
    00:00 +22°C° 0 mm 3 mps 758 mmHg 78%
    01:00 +23°C° 0 mm 2 mps 758 mmHg 80%
    02:00 +23°C° 0 mm 2 mps 757 mmHg 81%
    03:00 +21°C° 0 mm 2 mps 757 mmHg 82%
    04:00 +21°C° 0 mm 2 mps 757 mmHg 83%
    05:00 +23°C° 0 mm 2 mps 757 mmHg 79%
    06:00 +24°C° 0 mm 2 mps 757 mmHg 76%
    07:00 +24°C° 0 mm 3 mps 757 mmHg 72%
    08:00 +27°C° 0 mm 3 mps 757 mmHg 64%
    09:00 +29°C° 0 mm 3 mps 757 mmHg 56%
    10:00 +32°C° 0 mm 4 mps 757 mmHg 48%
    11:00 +33°C° 0 mm 4 mps 756 mmHg 46%
    12:00 +34°C° 0 mm 4 mps 756 mmHg 44%
    13:00 +34°C° 0 mm 4 mps 755 mmHg 42%
    14:00 +34°C° 0 mm 5 mps 755 mmHg 44%
    15:00 +33°C° 0 mm 5 mps 755 mmHg 47%
    16:00 +33°C° 0 mm 5 mps 754 mmHg 49%
    17:00 +30°C° 0 mm 5 mps 755 mmHg 55%
    18:00 +28°C° 0 mm 4 mps 755 mmHg 62%
    19:00 +27°C° 0 mm 4 mps 756 mmHg 68%
    20:00 +26°C° 0 mm 3 mps 756 mmHg 72%
    21:00 +25°C° 0 mm 3 mps 757 mmHg 75%
    22:00 +25°C° 0 mm 2 mps 757 mmHg 79%
    23:00 +24°C° 0 mm 2 mps 757 mmHg 81%

    Day after tomorrow, 19 February, Tuesday

    Time Temperature Precipitation Wind Pressure Humidity
    00:00 +24°C° 0 mm 2 mps 756 mmHg 84%
    01:00 +23°C° 0 mm 1 mps 756 mmHg 86%
    02:00 +23°C° 0 mm 1 mps 755 mmHg 88%
    03:00 +21°C° 0 mm 2 mps 755 mmHg 89%
    04:00 +21°C° 0 mm 2 mps 755 mmHg 91%
    05:00 +23°C° 0 mm 2 mps 755 mmHg 87%
    06:00 +23°C° 0 mm 1 mps 755 mmHg 84%
    07:00 +24°C° 0 mm 1 mps 755 mmHg 80%
    08:00 +27°C° 0 mm 1 mps 755 mmHg 68%
    09:00 +29°C° 0 mm 1 mps 755 mmHg 56%
    10:00 +32°C° 0 mm 2 mps 754 mmHg 44%
    11:00 +34°C° 0 mm 2 mps 754 mmHg 40%
    12:00 +36°C° 0 mm 2 mps 753 mmHg 37%
    13:00 +37°C° 0 mm 2 mps 752 mmHg 34%
    14:00 +37°C° 0 mm 3 mps 752 mmHg 36%
    15:00 +36°C° 0 mm 3 mps 751 mmHg 38%
    16:00 +36°C° 0 mm 4 mps 751 mmHg 40%
    17:00 +33°C° 0 mm 4 mps 751 mmHg 50%
    18:00 +30°C° 0 mm 4 mps 752 mmHg 60%
    19:00 +28°C° 0 mm 4 mps 752 mmHg 70%
    20:00 +27°C° 0 mm 3 mps 753 mmHg 75%
    21:00 +26°C° 0 mm 3 mps 754 mmHg 81%
    22:00 +26°C° 0 mm 2 mps 754 mmHg 86%
    23:00 +25°C° 0 mm 2 mps 754 mmHg 88%

    20 February, Wednesday

    Time Temperature Precipitation Wind Pressure Humidity
    00:00 +25°C° 0 mm 2 mps 753 mmHg 89%
    01:00 +24°C° 0 mm 2 mps 753 mmHg 91%
    02:00 +24°C° 0 mm 2 mps 753 mmHg 91%
    03:00 +24°C° 0 mm 2 mps 753 mmHg 91%
    04:00 +22°C° 0 mm 3 mps 753 mmHg 92%
    05:00 +24°C° 0 mm 3 mps 753 mmHg 88%
    06:00 +25°C° 0 mm 3 mps 754 mmHg 85%
    07:00 +25°C° 0 mm 4 mps 754 mmHg 81%
    08:00 +28°C° 0 mm 4 mps 754 mmHg 71%
    09:00 +30°C° 0 mm 4 mps 754 mmHg 62%
    10:00 +33°C° 0 mm 4 mps 754 mmHg 52%
    11:00 +34°C° 0 mm 4 mps 754 mmHg 47%
    12:00 +36°C° 0 mm 5 mps 753 mmHg 42%
    13:00 +37°C° 0 mm 5 mps 752 mmHg 38%
    14:00 +37°C° 0 mm 5 mps 752 mmHg 41%
    15:00 +36°C° 0 mm 5 mps 751 mmHg 44%
    16:00 +35°C° 0 mm 6 mps 751 mmHg 47%
    17:00 +34°C° 0 mm 5 mps 751 mmHg 55%
    18:00 +32°C° 0 mm 5 mps 752 mmHg 63%
    19:00 +29°C° 0 mm 4 mps 752 mmHg 71%
    20:00 +28°C° 0 mm 4 mps 753 mmHg 75%
    21:00 +28°C° 0 mm 4 mps 753 mmHg 79%
    22:00 +27°C° 0 mm 3 mps 754 mmHg 83%
    23:00 +27°C° 0 mm 3 mps 753 mmHg 85%

    21 February, Thursday

    Time Temperature Precipitation Wind Pressure Humidity
    00:00 +26°C° 0 mm 3 mps 752 mmHg 87%
    01:00 +26°C° 0 mm 3 mps 752 mmHg 89%
    02:00 +26°C° 0 mm 3 mps 752 mmHg 89%
    03:00 +26°C° 0 mm 3 mps 751 mmHg 88%
    04:00 +26°C° 0 mm 3 mps 751 mmHg 88%
    05:00 +27°C° 0 mm 4 mps 751 mmHg 84%
    06:00 +27°C° 0 mm 4 mps 752 mmHg 81%
    07:00 +28°C° 0 mm 4 mps 752 mmHg 77%
    08:00 +29°C° 0 mm 4 mps 752 mmHg 71%
    09:00 +30°C° 0 mm 4 mps 752 mmHg 65%
    10:00 +33°C° 0 mm 5 mps 752 mmHg 59%
    11:00 +33°C° 0 mm 5 mps 752 mmHg 57%
    12:00 +34°C° 0 mm 5 mps 751 mmHg 54%
    13:00 +35°C° 0 mm 5 mps 751 mmHg 52%
    14:00 +35°C° 0 mm 5 mps 751 mmHg 51%
    15:00 +35°C° 0 mm 5 mps 750 mmHg 49%
    16:00 +36°C° 0 mm 5 mps 750 mmHg 47%
    17:00 +34°C° 0 mm 5 mps 750 mmHg 53%
    18:00 +33°C° 0 mm 5 mps 751 mmHg 58%
    19:00 +30°C° 0 mm 5 mps 752 mmHg 63%
    20:00 +29°C° 0 mm 5 mps 752 mmHg 66%
    21:00 +28°C° 0 mm 5 mps 753 mmHg 70%
    22:00 +28°C° 0 mm 5 mps 753 mmHg 73%
    23:00 +28°C° 0 mm 5 mps 753 mmHg 72%

    22 February, Friday

    Time Temperature Precipitation Wind Pressure Humidity
    00:00 +27°C° 0 mm 5 mps 753 mmHg 71%
    01:00 +27°C° 0 mm 6 mps 752 mmHg 70%
    02:00 +27°C° 0 mm 6 mps 753 mmHg 69%
    03:00 +27°C° 0 mm 6 mps 753 mmHg 68%
    04:00 +27°C° 0 mm 6 mps 753 mmHg 67%
    05:00 +27°C° 0 mm 6 mps 753 mmHg 66%
    06:00 +27°C° 0 mm 7 mps 754 mmHg 64%
    07:00 +27°C° 0 mm 7 mps 755 mmHg 63%
    08:00 +29°C° 0 mm 7 mps 755 mmHg 56%
    09:00 +30°C° 0 mm 6 mps 755 mmHg 50%
    10:00 +33°C° 0 mm 6 mps 756 mmHg 43%
    11:00 +34°C° 0 mm 6 mps 755 mmHg 40%
    12:00 +35°C° 0 mm 6 mps 755 mmHg 38%
    13:00 +36°C° 0 mm 6 mps 755 mmHg 35%
    14:00 +34°C° 0 mm 6 mps 755 mmHg 39%
    15:00 +33°C° 0 mm 7 mps 755 mmHg 42%
    16:00 +30°C° 0 mm 7 mps 755 mmHg 46%
    17:00 +29°C° 0 mm 6 mps 756 mmHg 48%
    18:00 +28°C° 0 mm 6 mps 756 mmHg 50%
    19:00 +27°C° 0 mm 5 mps 757 mmHg 52%
    20:00 +26°C° 0 mm 5 mps 758 mmHg 55%
    21:00 +26°C° 0 mm 6 mps 758 mmHg 59%
    22:00 +24°C° 0 mm 6 mps 759 mmHg 62%
    23:00 +23°C° 0 mm 6 mps 758 mmHg 64%
    Show more